Location: Newark
(40.7360°N, 74.1730°W)
Time: 01:06:09
(UTC-05:00)

Amateur Radio Satellites - All Passes

Search period start: 20 November 2017 00:36
Search period end: 21 November 2017 00:36
Location: Newark, 40.7360°N, 74.1730°W

Satellite Date Start Highest point End Downlink Frequencies (MHz)
Time Altitude Azimuth
50 SAT 20 Nov 00:40:44 00:43:57 78° 77° (ENE) 00:47:13 437.505
ISS 20 Nov 00:43:04 00:44:31 12° 1° (N) 00:45:58 437.550
Oscar 19 20 Nov 00:43:21 00:47:38 26° 95° (E) 00:51:53 437.125/150
PCSat 20 Nov 00:44:40 00:50:04 73° 300° (WNW) 00:55:31 145.827
Gurwin Techsat 1B 20 Nov 00:56:14 01:00:34 25° 94° (E) 01:04:52 435.225
BEESAT 20 Nov 00:58:57 00:59:21 10° 59° (ENE) 00:59:45 436.000
ITUPSAT 1 20 Nov 01:06:02 01:07:53 12° 60° (ENE) 01:09:45 437.325
DUCHIFAT 1 20 Nov 01:12:16 01:15:19 20° 293° (WNW) 01:18:22 145.980
EO-79 20 Nov 01:18:23 01:20:36 14° 296° (WNW) 01:22:47 145.935-145.965
NANOSAT C BR1 20 Nov 01:22:39 01:24:52 14° 296° (WNW) 01:27:05 145.865
DX 1 20 Nov 01:26:06 01:30:10 38° 262° (W) 01:34:16 434.975-435.025
MOZHAYETS 4 20 Nov 01:30:45 01:34:28 25° 68° (ENE) 01:38:12
nSIGHT-1 20 Nov 01:40:22 01:42:25 16° 15° (NNE) 01:44:29 .
BEESAT 3 20 Nov 01:50:18 01:52:43 16° 110° (ESE) 01:55:08 437.485
M-CUBED/EXP-1 PRIME 20 Nov 01:59:07 02:02:45 23° 100° (E) 02:06:26 437.505
RS-15 20 Nov 01:59:42 02:10:31 36° 35° (NE) 02:20:47 29.354- 29.394
BUGSAT 1 20 Nov 02:11:03 02:13:46 18° 294° (WNW) 02:16:27 437.445
UKube-1 20 Nov 02:12:31 02:15:39 19° 266° (W) 02:18:48 .
ISS 20 Nov 02:19:20 02:21:57 21° 21° (NNE) 02:24:31 437.550
Oscar 19 20 Nov 02:22:16 02:27:00 37° 291° (WNW) 02:31:43 437.125/150
BEESAT 20 Nov 02:31:33 02:36:20 87° 72° (ENE) 02:41:08 436.000
PCSat 20 Nov 02:31:44 02:34:26 14° 321° (NW) 02:37:08 145.827
ITAMSAT 1 20 Nov 02:33:26 02:36:35 16° 91° (E) 02:39:43 435.822/435.867
Gurwin Techsat 1B 20 Nov 02:35:39 02:40:37 41° 291° (WNW) 02:45:34 435.225
ITUPSAT 1 20 Nov 02:40:15 02:45:02 79° 257° (WSW) 02:49:51 437.325
BEESAT 2 20 Nov 02:57:15 03:00:28 23° 112° (ESE) 03:03:43 435.950
MOZHAYETS 4 20 Nov 03:07:26 03:11:29 31° 264° (W) 03:15:33
AO-7 20 Nov 03:13:50 03:22:01 56° 103° (ESE) 03:30:10 .
CUBESAT XI-V 20 Nov 03:14:23 03:18:56 70° 75° (ENE) 03:23:32 437.345
nSIGHT-1 20 Nov 03:15:59 03:19:10 60° 34° (NE) 03:22:18 .
BEESAT 3 20 Nov 03:26:02 03:29:52 45° 306° (NW) 03:33:44 437.485
M-CUBED/EXP-1 PRIME 20 Nov 03:32:59 03:37:08 37° 294° (WNW) 03:41:24 437.505
KKS-1 20 Nov 03:33:01 03:36:44 26° 68° (ENE) 03:40:29 437.445
DOVE 4 20 Nov 03:46:48 03:49:44 15° 89° (E) 03:52:35 437.250
ISS 20 Nov 03:55:26 03:58:41 68° 219° (SW) 04:01:55 437.550
STARS 20 Nov 04:01:39 04:05:01 22° 66° (ENE) 04:08:23 437.465
ITAMSAT 1 20 Nov 04:11:18 04:16:27 61° 288° (WNW) 04:21:32 435.822/435.867
RS-15 20 Nov 04:12:27 04:24:18 80° 242° (WSW) 04:35:28 29.354- 29.394
BEESAT 2 20 Nov 04:34:25 04:38:02 31° 310° (NW) 04:41:41 435.950
AO-85 20 Nov 04:41:52 04:45:42 66° 304° (NW) 04:49:44 145.980
nSIGHT-1 20 Nov 04:53:18 04:55:03 14° 229° (SW) 04:56:47 .
CUBESAT XI-V 20 Nov 04:55:30 04:56:47 11° 271° (W) 04:58:03 437.345
XW-2B 20 Nov 05:03:30 05:05:27 14° 92° (E) 05:07:24 145.730 - 145.750
AO-7 20 Nov 05:07:08 05:14:24 35° 301° (WNW) 05:21:41 .
KKS-1 20 Nov 05:09:17 05:13:10 29° 264° (W) 05:17:04 437.445
YUBILEINY 20 Nov 05:14:24 05:22:55 61° 91° (E) 05:31:32 435.215
STRAND 1 20 Nov 05:15:31 05:18:38 16° 62° (ENE) 05:21:46 437.568
DOVE 4 20 Nov 05:22:42 05:27:52 63° 286° (WNW) 05:32:46 437.250
NUDT-PHONESAT 20 Nov 05:23:58 05:26:21 16° 93° (E) 05:28:44 437.300
XW-2C 20 Nov 05:27:53 05:31:10 27° 96° (E) 05:34:27 145.795 - 145.815
LilacSat-2 20 Nov 05:28:05 05:31:30 30° 97° (E) 05:34:54 437.200
CUTE-I 20 Nov 05:33:56 05:38:35 29° 96° (E) 05:43:11 437.470
STARS 20 Nov 05:37:03 05:41:07 35° 262° (W) 05:45:12 437.465
XW-2F 20 Nov 05:39:40 05:43:11 35° 98° (E) 05:46:41 145.980 - 146.000
KAITUO 1B 20 Nov 06:09:41 06:13:26 67° 100° (E) 06:17:11 145.475/437.950
SO-50 20 Nov 06:15:39 06:20:08 45° 53° (NE) 06:24:38 436.795
XW-2D 20 Nov 06:21:17 06:25:02 57° 285° (WNW) 06:28:46 145.860 - 145.880
RS-15 20 Nov 06:27:45 06:34:35 18° 263° (W) 06:41:17 29.354- 29.394
HO-68 20 Nov 06:30:45 06:37:29 41° 98° (E) 06:44:10 435.675
XW-2B 20 Nov 06:36:13 06:39:47 39° 287° (WNW) 06:43:20 145.730 - 145.750
CUTE 1.7 + AOD 2 20 Nov 06:37:18 06:41:22 41° 98° (E) 06:45:25 437.475
FO-29 20 Nov 06:43:08 06:48:53 32° 62° (ENE) 06:55:12 435.910
UWE-3 20 Nov 06:44:48 06:47:15 15° 92° (E) 06:49:41 435.000/436.395/437.385
STRAND 1 20 Nov 06:52:09 06:57:16 65° 259° (W) 07:02:24 437.568
NUDT-PHONESAT 20 Nov 06:56:58 07:00:14 31° 289° (WNW) 07:03:32 437.300
XW-2C 20 Nov 07:02:22 07:05:10 20° 291° (WNW) 07:07:57 145.795 - 145.815
LilacSat-2 20 Nov 07:02:51 07:05:33 19° 292° (WNW) 07:08:15 437.200
XW-2A 20 Nov 07:05:35 07:08:13 21° 96° (E) 07:10:52 145.665 - 145.685
SEEDS 20 Nov 07:10:11 07:14:23 60° 100° (E) 07:18:35 437.485
YUBILEINY 20 Nov 07:12:54 07:20:15 30° 292° (WNW) 07:27:44 435.215
CUTE-I 20 Nov 07:13:46 07:18:37 36° 292° (WNW) 07:23:27 437.470
XW-2F 20 Nov 07:14:40 07:16:59 16° 293° (WNW) 07:19:18 145.980 - 146.000
CUBEBUG 2 20 Nov 07:20:21 07:24:32 73° 101° (E) 07:28:39 437.445
AAUSAT CUBESAT 2 20 Nov 07:21:04 07:24:53 33° 97° (E) 07:28:39 437.432
AO-73 20 Nov 07:29:08 07:32:22 22° 95° (E) 07:35:38 145.935
Oscar 11 20 Nov 07:46:50 07:50:23 24° 95° (E) 07:53:54 .
PCSat 20 Nov 07:50:52 07:54:00 15° 41° (NE) 07:57:06 145.827
SO-50 20 Nov 07:56:48 08:00:17 21° 249° (WSW) 08:03:48 436.795
ZACube-1 20 Nov 08:12:46 08:16:56 83° 102° (ESE) 08:21:05 437.345
CUTE 1.7 + AOD 2 20 Nov 08:14:03 08:16:51 17° 294° (WNW) 08:19:39 437.475
HO-68 20 Nov 08:18:36 08:25:06 39° 296° (WNW) 08:31:36 435.675
UWE-3 20 Nov 08:20:00 08:23:54 41° 288° (WNW) 08:27:47 435.000/436.395/437.385
FO-29 20 Nov 08:27:18 08:33:32 49° 263° (W) 08:40:36 435.910
XW-2A 20 Nov 08:38:21 08:40:47 19° 291° (WNW) 08:43:13 145.665 - 145.685
PRISM 20 Nov 08:41:43 08:44:45 20° 66° (ENE) 08:47:47 437.425
SEEDS 20 Nov 08:47:45 08:49:33 12° 296° (WNW) 08:51:20 437.485
UNISAT 6 20 Nov 08:55:04 08:59:41 83° 75° (ENE) 09:04:12 437.425
AAUSAT CUBESAT 2 20 Nov 08:57:00 09:00:06 20° 292° (WNW) 09:03:11 437.432
TIGRISAT 20 Nov 08:59:45 09:04:21 85° 76° (ENE) 09:08:52 435.000
AO-73 20 Nov 09:05:02 09:08:35 28° 290° (WNW) 09:12:11 145.935
Oscar 11 20 Nov 09:22:45 09:26:28 29° 291° (WNW) 09:30:12 .
Max Valier Satellite 20 Nov 09:23:30 09:26:59 39° 98° (E) 09:30:26 145.860
EO-88 20 Nov 09:24:46 09:27:57 28° 96° (E) 09:31:07 145.990 - 145.960
PCSat 20 Nov 09:32:46 09:38:14 83° 61° (ENE) 09:43:39 145.827
DELFI C3 20 Nov 09:37:27 09:41:29 90° 291° (WNW) 09:45:28 145.870
AIST 2D 20 Nov 09:38:04 09:40:40 20° 70° (ENE) 09:43:17 435.315
QB50P2 20 Nov 09:39:12 09:39:55 10° 62° (ENE) 09:40:38 145.880/145.840
FALCONSAT 3 20 Nov 10:05:11 10:07:59 21° 162° (SSE) 10:10:48 435.103
BEESAT 3 20 Nov 10:07:07 10:08:26 11° 40° (NE) 10:09:44 437.485
PRISM 20 Nov 10:16:03 10:19:46 33° 262° (W) 10:23:32 437.425
ESTCUBE 1 20 Nov 10:25:12 10:28:00 16° 92° (E) 10:30:47 437.505/2401.250
DUCHIFAT 1 20 Nov 10:27:36 10:31:00 24° 68° (ENE) 10:34:25 145.980
EO-79 20 Nov 10:33:00 10:36:53 36° 71° (ENE) 10:40:47 145.935-145.965
NANOSAT C BR1 20 Nov 10:37:01 10:40:53 35° 70° (ENE) 10:44:44 145.865
POLYITAN 1 20 Nov 10:47:43 10:51:51 53° 74° (ENE) 10:56:00 437.675
Max Valier Satellite 20 Nov 10:58:38 11:00:26 13° 294° (WNW) 11:02:14 145.860
EO-88 20 Nov 10:58:51 11:01:23 18° 292° (WNW) 11:03:54 145.990 - 145.960
QB50P2 20 Nov 11:10:50 11:15:04 74° 258° (WSW) 11:19:20 145.880/145.840
AIST 2D 20 Nov 11:11:02 11:13:43 21° 265° (W) 11:16:26 435.315
BEESAT 2 20 Nov 11:14:57 11:17:32 16° 43° (NE) 11:20:05 435.950
PCSat 20 Nov 11:18:37 11:20:51 13° 258° (WSW) 11:23:03 145.827
BUGSAT 1 20 Nov 11:24:14 11:27:42 25° 69° (ENE) 11:31:09 437.445
LO-87 20 Nov 11:25:45 11:29:17 66° 284° (WNW) 11:32:46 145.935 - 145.965
AO-85 20 Nov 11:33:14 11:35:53 15° 41° (NE) 11:38:38 145.980
BEESAT 3 20 Nov 11:42:37 11:46:34 90° 203° (SSW) 11:50:26 437.485
FALCONSAT 3 20 Nov 11:43:13 11:46:37 35° 177° (S) 11:50:01 435.103
SPROUT 20 Nov 11:54:49 11:58:42 34° 97° (E) 12:02:34 437.525
Oscar 19 20 Nov 11:59:48 12:04:27 37° 69° (ENE) 12:09:08 437.125/150
ESTCUBE 1 20 Nov 12:00:40 12:05:02 48° 288° (WNW) 12:09:22 437.505/2401.250
DUCHIFAT 1 20 Nov 12:02:55 12:06:32 27° 264° (W) 12:10:10 145.980
EO-79 20 Nov 12:09:44 12:12:44 19° 267° (W) 12:15:45 145.935-145.965
NANOSAT C BR1 20 Nov 12:13:38 12:16:39 19° 266° (W) 12:19:40 145.865
Gurwin Techsat 1B 20 Nov 12:16:49 12:21:42 39° 69° (ENE) 12:26:37 435.225
O/OREOS (USA 219) 20 Nov 12:20:31 12:23:27 17° 100° (E) 12:26:24 437.305
AO-7 20 Nov 12:24:16 12:29:06 17° 48° (NE) 12:33:55 .
VELOX 1 20 Nov 12:25:30 12:29:49 47° 100° (E) 12:34:05 145.980
POLYITAN 1 20 Nov 12:26:01 12:27:56 13° 269° (W) 12:29:50 437.675
M-CUBED/EXP-1 PRIME 20 Nov 12:45:01 12:47:46 21° 62° (ENE) 12:50:41 437.505
BEESAT 2 20 Nov 12:51:39 12:55:36 56° 242° (WSW) 12:59:29 435.950
BUGSAT 1 20 Nov 12:59:24 13:02:57 26° 264° (W) 13:06:30 437.445
AO-85 20 Nov 13:12:08 13:16:53 90° 54° (NE) 13:21:57 145.980
DX 1 20 Nov 13:14:13 13:18:16 35° 98° (E) 13:22:16 434.975-435.025
FALCONSAT 3 20 Nov 13:22:06 13:25:19 28° 192° (SSW) 13:28:33 435.103
50 SAT 20 Nov 13:30:09 13:33:22 67° 101° (E) 13:36:34 437.505
SPROUT 20 Nov 13:31:14 13:34:21 20° 293° (WNW) 13:37:27 437.525
Oscar 19 20 Nov 13:39:37 13:43:49 26° 265° (W) 13:48:04 437.125/150
ITAMSAT 1 20 Nov 13:50:40 13:54:55 26° 65° (ENE) 13:59:10 435.822/435.867
Gurwin Techsat 1B 20 Nov 13:57:20 14:01:43 26° 265° (W) 14:06:10 435.225
O/OREOS (USA 219) 20 Nov 13:58:01 14:02:27 47° 296° (WNW) 14:06:55 437.305
UKube-1 20 Nov 13:58:06 14:02:26 68° 103° (ESE) 14:06:42 .
VELOX 1 20 Nov 14:03:01 14:05:51 17° 296° (WNW) 14:08:40 145.980
AO-7 20 Nov 14:12:14 14:20:27 73° 68° (ENE) 14:28:43 .
NO-84 20 Nov 14:13:14 14:15:51 19° 124° (SE) 14:18:38 435.350 FM
M-CUBED/EXP-1 PRIME 20 Nov 14:19:08 14:22:02 24° 260° (W) 14:25:09 437.505
BEESAT 20 Nov 14:32:34 14:36:14 22° 94° (E) 14:39:53 436.000
ITUPSAT 1 20 Nov 14:41:24 14:45:24 26° 96° (E) 14:49:21 437.325
DX 1 20 Nov 14:50:54 14:54:12 21° 294° (WNW) 14:57:28 434.975-435.025
DOVE 4 20 Nov 14:51:42 14:54:43 16° 62° (ENE) 14:57:47 437.250
AO-85 20 Nov 14:55:29 14:56:44 11° 253° (WSW) 14:57:58 145.980
MOZHAYETS 4 20 Nov 15:01:50 15:06:22 60° 101° (E) 15:10:52
FALCONSAT 3 20 Nov 15:02:27 15:03:47 12° 206° (SSW) 15:05:08 435.103
CUBESAT XI-V 20 Nov 15:12:01 15:15:12 18° 92° (E) 15:18:21 437.345
YUBILEINY 20 Nov 15:25:18 15:32:50 30° 69° (ENE) 15:40:16 435.215
ITAMSAT 1 20 Nov 15:29:14 15:34:08 40° 262° (W) 15:39:04 435.822/435.867
UKube-1 20 Nov 15:36:18 15:37:51 12° 298° (WNW) 15:39:24 .
NO-84 20 Nov 15:49:12 15:52:50 50° 323° (NW) 15:56:46 435.350 FM
AO-7 20 Nov 16:07:34 16:13:52 24° 266° (W) 16:20:14 .
BEESAT 20 Nov 16:09:43 16:14:07 38° 290° (WNW) 16:18:29 436.000
XW-2C 20 Nov 16:10:03 16:11:56 14° 66° (ENE) 16:13:49 145.795 - 145.815
LilacSat-2 20 Nov 16:10:40 16:12:51 15° 66° (ENE) 16:15:02 437.200
ITUPSAT 1 20 Nov 16:18:59 16:23:12 32° 292° (WNW) 16:27:23 437.325
XW-2F 20 Nov 16:20:55 16:23:19 17° 67° (ENE) 16:25:45 145.980 - 146.000
DOVE 4 20 Nov 16:26:46 16:31:43 67° 259° (W) 16:36:57 437.250
RS-15 20 Nov 16:28:21 16:34:53 16° 96° (E) 16:41:24 29.354- 29.394
MOZHAYETS 4 20 Nov 16:40:35 16:43:00 14° 297° (WNW) 16:45:24
CUBESAT XI-V 20 Nov 16:48:17 16:52:46 46° 288° (WNW) 16:57:14 437.345
KAITUO 1B 20 Nov 16:49:19 16:52:28 28° 71° (ENE) 16:55:39 145.475/437.950
CUTE-I 20 Nov 16:55:13 17:00:19 47° 70° (ENE) 17:05:27 437.470
HO-68 20 Nov 16:59:30 17:05:35 31° 61° (ENE) 17:11:41 435.675
KKS-1 20 Nov 16:59:38 17:04:01 52° 101° (E) 17:08:21 437.445
XW-2D 20 Nov 17:01:40 17:05:20 59° 75° (ENE) 17:09:01 145.860 - 145.880
XW-2B 20 Nov 17:16:24 17:20:07 89° 75° (ENE) 17:23:53 145.730 - 145.750
YUBILEINY 20 Nov 17:21:29 17:30:09 61° 269° (W) 17:38:46 435.215
STARS 20 Nov 17:26:11 17:30:19 39° 98° (E) 17:34:25 437.465
NO-84 20 Nov 17:28:40 17:31:02 15° 343° (NNW) 17:33:29 435.350 FM
CUTE 1.7 + AOD 2 20 Nov 17:29:42 17:33:17 28° 70° (ENE) 17:36:53 437.475
NUDT-PHONESAT 20 Nov 17:34:44 17:38:22 77° 258° (WSW) 17:42:02 437.300
UWE-3 20 Nov 17:41:57 17:44:13 14° 65° (ENE) 17:46:28 435.000/436.395/437.385
XW-2C 20 Nov 17:42:13 17:45:44 40° 262° (W) 17:49:17 145.795 - 145.815
LilacSat-2 20 Nov 17:43:19 17:46:48 36° 262° (W) 17:50:19 437.200
XW-2F 20 Nov 17:53:51 17:57:10 31° 263° (W) 18:00:32 145.980 - 146.000
SEEDS 20 Nov 18:01:19 18:05:09 38° 72° (ENE) 18:09:02 437.485
AAUSAT CUBESAT 2 20 Nov 18:11:07 18:14:15 21° 68° (ENE) 18:17:24 437.432
CUBEBUG 2 20 Nov 18:17:20 18:21:52 58° 75° (ENE) 18:26:17 437.445
KAITUO 1B 20 Nov 18:23:55 18:26:28 18° 266° (W) 18:29:01 145.475/437.950
AO-73 20 Nov 18:24:41 18:27:34 18° 67° (ENE) 18:30:27 145.935
RS-15 20 Nov 18:32:56 18:45:06 72° 116° (ESE) 18:57:17 29.354- 29.394
CUTE-I 20 Nov 18:36:27 18:40:34 22° 267° (W) 18:44:42 437.470
KKS-1 20 Nov 18:37:30 18:40:06 16° 297° (WNW) 18:42:43 437.445
Oscar 11 20 Nov 18:41:48 18:44:47 19° 66° (ENE) 18:47:46 .
HO-68 20 Nov 18:45:58 18:52:57 53° 259° (W) 18:59:59 435.675
STRAND 1 20 Nov 19:02:58 19:07:52 44° 99° (E) 19:12:42 437.568
STARS 20 Nov 19:03:15 19:06:21 19° 295° (WNW) 19:09:27 437.465
CUTE 1.7 + AOD 2 20 Nov 19:05:42 19:09:05 23° 266° (W) 19:12:28 437.475
ZACube-1 20 Nov 19:07:44 19:12:00 60° 75° (ENE) 19:16:12 437.345
XW-2A 20 Nov 19:07:50 19:11:07 62° 259° (W) 19:14:25 145.665 - 145.685
NO-84 20 Nov 19:08:28 19:09:53 11° 5° (N) 19:11:20 435.350 FM
UWE-3 20 Nov 19:15:49 19:20:13 57° 260° (W) 19:24:32 435.000/436.395/437.385
FO-29 20 Nov 19:37:07 19:43:57 32° 92° (E) 19:50:23 435.910
SEEDS 20 Nov 19:38:14 19:40:58 17° 268° (W) 19:43:43 437.485
AAUSAT CUBESAT 2 20 Nov 19:45:51 19:49:30 30° 264° (W) 19:53:11 437.432
nSIGHT-1 20 Nov 19:53:43 19:56:06 19° 133° (SE) 19:58:29 .
CUBEBUG 2 20 Nov 19:56:34 19:58:47 13° 269° (W) 20:00:58 437.445
AO-73 20 Nov 19:59:27 20:03:32 39° 262° (W) 20:07:31 145.935
Max Valier Satellite 20 Nov 20:02:38 20:05:06 17° 68° (ENE) 20:07:34 145.860
EO-88 20 Nov 20:03:29 20:05:00 12° 66° (ENE) 20:06:33 145.990 - 145.960
Oscar 11 20 Nov 20:16:37 20:20:36 38° 262° (W) 20:24:39 .
DELFI C3 20 Nov 20:21:55 20:25:42 46° 73° (ENE) 20:29:31 145.870
SO-50 20 Nov 20:31:44 20:34:04 14° 109° (ESE) 20:36:25 436.795
ISS 20 Nov 20:34:56 20:38:02 40° 137° (SE) 20:41:08 437.550
STRAND 1 20 Nov 20:42:48 20:46:45 23° 295° (WNW) 20:50:39 437.568
NO-84 20 Nov 20:45:14 20:48:34 22° 25° (NNE) 20:51:55 435.350 FM
RS-15 20 Nov 20:47:11 20:58:36 41° 320° (NW) 21:09:55 29.354- 29.394
ZACube-1 20 Nov 20:47:11 20:48:37 11° 270° (W) 20:50:03 437.345
UNISAT 6 20 Nov 20:48:10 20:50:54 16° 92° (E) 20:53:35 437.425
TIGRISAT 20 Nov 20:52:40 20:55:25 17° 92° (E) 20:58:09 435.000
FO-29 20 Nov 21:21:34 21:29:12 55° 291° (WNW) 21:36:25 435.910
ESTCUBE 1 20 Nov 21:24:58 21:27:30 15° 63° (ENE) 21:30:02 437.505/2401.250
nSIGHT-1 20 Nov 21:29:00 21:32:07 45° 329° (NNW) 21:35:14 .
EO-88 20 Nov 21:34:49 21:38:15 41° 261° (W) 21:41:43 145.990 - 145.960
Max Valier Satellite 20 Nov 21:35:31 21:38:42 28° 263° (W) 21:41:55 145.860
PRISM 20 Nov 21:57:10 22:00:54 31° 97° (E) 22:04:37 437.425
DELFI C3 20 Nov 21:58:52 22:00:41 13° 269° (W) 22:02:30 145.870
LO-87 20 Nov 22:00:52 22:04:17 42° 74° (ENE) 22:07:43 145.935 - 145.965
SO-50 20 Nov 22:09:35 22:13:59 60° 304° (NW) 22:18:28 436.795
ISS 20 Nov 22:11:43 22:14:35 27° 335° (NNW) 22:17:28 437.550
NO-84 20 Nov 22:22:06 22:26:24 84° 224° (SW) 22:30:38 435.350 FM
UNISAT 6 20 Nov 22:23:46 22:27:47 40° 288° (WNW) 22:31:46 437.425
TIGRISAT 20 Nov 22:28:17 22:32:17 39° 288° (WNW) 22:36:14 435.000
O/OREOS (USA 219) 20 Nov 22:29:14 22:33:19 31° 60° (ENE) 22:37:20 437.305
AIST 2D 20 Nov 22:35:21 22:38:19 25° 96° (E) 22:41:16 435.315
SPROUT 20 Nov 22:47:46 22:51:19 26° 69° (ENE) 22:54:53 437.525
QB50P2 20 Nov 22:56:47 22:59:39 18° 93° (E) 23:02:29 145.880/145.840
ESTCUBE 1 20 Nov 22:59:27 23:03:49 54° 260° (W) 23:08:14 437.505/2401.250
RS-15 20 Nov 23:06:55 23:15:47 22° 354° (N) 23:24:27 29.354- 29.394
nSIGHT-1 20 Nov 23:07:06 23:08:58 14° 348° (NNW) 23:10:50 .
FO-29 20 Nov 23:09:54 23:12:28 12° 310° (NW) 23:15:00 435.910
VELOX 1 20 Nov 23:22:07 23:26:15 40° 71° (ENE) 23:30:26 145.980
PRISM 20 Nov 23:32:48 23:35:57 21° 293° (WNW) 23:39:06 437.425
LO-87 20 Nov 23:36:41 23:37:53 11° 268° (W) 23:39:05 145.935 - 145.965
DUCHIFAT 1 20 Nov 23:46:17 23:50:16 43° 99° (E) 23:54:14 145.980
ISS 20 Nov 23:50:20 23:51:54 13° 355° (N) 23:53:27 437.550
EO-79 20 Nov 23:52:55 23:57:07 70° 103° (ESE) 00:01:16 145.935-145.965
SO-50 20 Nov 23:54:39 23:55:24 10° 325° (NW) 23:56:09 436.795
NANOSAT C BR1 20 Nov 23:56:29 00:00:39 68° 102° (ESE) 00:04:48 145.865
50 SAT 20 Nov 23:57:27 23:59:45 18° 69° (ENE) 00:02:03 437.505
NO-84 21 Nov 00:01:52 00:03:07 11° 240° (WSW) 00:04:21 435.350 FM
POLYITAN 1 21 Nov 00:08:07 00:12:19 78° 284° (WNW) 00:16:29 437.675
AIST 2D 21 Nov 00:08:49 00:11:18 18° 291° (WNW) 00:13:46 435.315
O/OREOS (USA 219) 21 Nov 00:08:52 00:12:34 25° 258° (WSW) 00:16:13 437.305
DX 1 21 Nov 00:09:21 00:13:09 30° 69° (ENE) 00:17:00 434.975-435.025
Oscar 19 21 Nov 00:13:13 00:15:27 13° 90° (E) 00:17:42 437.125/150
PCSat 21 Nov 00:13:45 00:19:10 83° 117° (ESE) 00:24:37 145.827
SPROUT 21 Nov 00:23:29 00:27:06 27° 264° (W) 00:30:44 437.525
